Weather Roundup
Issued by NWS Springfield, MO

Home | Current Version | Previous Version | Text Only | Print | Product List | Glossary On
Versions: 1 2 3 4 5 6 7 8 9 10 11 12 13 14 15 16 17 18 19 20 21 22 23 24 25 26 27 28 29 30 31 32 33 34 35 36 37 38 39 40 41 42 43 44 45 46 47 48 49 50
000
NZUS99 KSGF 260559
HRRSGF

HOURLY WEATHER
NATIONAL WEATHER SERVICE SPRINGFIELD MO
1200 AM CST MON JAN 26 2015

......SGF CWA......

CITY           SKY/WX    TMP DP  RH WIND       PRES   REMARKS
SPRINGFIELD    CLOUDY    35  30  82 N20       30.08R WCI  24
6HR MIN TEMP:  35; 6HR MAX TEMP:  36; 6HR PCP:  0.01;

JOPLIN         MOCLDY    35  28  75 N7        30.13S WCI  29
6HR MIN TEMP:  35; 6HR MAX TEMP:  41;

WEST PLAINS    CLOUDY    33  29  85 NW10      30.03R WCI  25
6HR MIN TEMP:  33; 6HR MAX TEMP:  38; 6HR PCP: TRACE;

ROLLA          CLOUDY    30  27  88 NW13      30.03R WCI  20
6HR MIN TEMP:  30; 6HR MAX TEMP:  33; 6HR PCP: TRACE;

OSAGE BEACH    CLOUDY    34  27  75 NW6       30.08S WCI  29

......SURROUNDING SGF CWA......

CITY           SKY/WX    TMP DP  RH WIND       PRES   REMARKS
CHANUTE        PTCLDY    31  28  89 W3        30.13S
PARSONS        CLEAR     29  27  92 CALM      30.14S
COFFEYVILLE    CLEAR     32  28  85 CALM      30.14S
EMPORIA        CLEAR     30  26  85 W5        30.12R WCI  25
SILOAM SPRINGS CLOUDY    37  27  65 N15       30.13S WCI  28
HARRISON AR    CLOUDY    37  32  82 NW13G21   30.06R WCI  29
NEAR YELLVILLE CLOUDY    39  28  65 NW8       30.06R WCI  34

......KANSAS AND MISSOURI......

CITY           SKY/WX    TMP DP  RH WIND       PRES   REMARKS
KANSAS CTY INT CLEAR     30  27  88 CALM      30.10S
DOWNTOWN KC    CLEAR     31  27  85 CALM      30.11S
COLUMBIA       CLOUDY    31  27  85 N15       30.08R WCI  20
SEDALIA        CLOUDY    33  29  85 NW9       30.11S WCI  25
ST JOSEPH      FOG       24  22  91 CALM      30.10F VSB 1/2
ST LOUIS       CLOUDY    31  23  72 N14       30.02S WCI  21
SPIRIT OF STL  CLOUDY    31  24  75 N12       30.04R WCI  22
KIRKSVILLE     CLOUDY    30  26  85 N8        30.08S WCI  22
WICHITA        CLEAR     30  24  78 CALM      30.15R
TOPEKA         CLEAR     29  25  85 CALM      30.11F
OLATHE         CLEAR     31  28  89 CALM      30.09F

......TENNESSEE......

CITY           SKY/WX    TMP DP  RH WIND       PRES   REMARKS
MEMPHIS        CLOUDY    43  35  73 NW13G23   29.94R
NASHVILLE      CLOUDY    44  41  89 NW13      29.75R

......ARKANSAS.......

CITY           SKY/WX    TMP DP  RH WIND       PRES   REMARKS
FAYETTEVILLE   CLOUDY    38  30  73 N9G18     30.11R WCI  31
FT SMITH       CLOUDY    43  31  62 N7        30.13S
LITTLE ROCK    MOCLDY    45  32  60 NW16G22   30.04R

......OKLAHOMA.......

CITY           SKY/WX    TMP DP  RH WIND       PRES   REMARKS
TULSA          CLEAR     36  30  79 NW3       30.15S
PONCA CITY     CLEAR     25  22  88 CALM      30.17R
MCALESTER      CLEAR     37  30  75 N6        30.16R WCI  32
OKLAHOMA CITY  CLEAR     38  26  62 NW3       30.17S

......IOWA............

CITY           SKY/WX    TMP DP  RH WIND       PRES   REMARKS
DES MOINES     CLOUDY    32  24  72 W3        30.06F
QUAD CITIES    MOCLDY    20  12  71 VRB3      30.05S

......ILLINOIS........

CITY           SKY/WX    TMP DP  RH WIND       PRES   REMARKS
QUINCY         PTCLDY    24  20  84 NW8       30.05S WCI  15
CHICAGO        MOCLDY    24  15  68 NE13      29.97F WCI  12




USA.gov is the U.S. government's official web portal to all federal, state and local government web resources and services.